When you browse on this site, cookies collect data to enhance your experience and personalize the content and advertising you see.
Visit our Privacy Policy to learn more. By continuing to use the site, you agree to this use of cookies and data.
  • In Latvia
  • List of Countries
  • For 7 days
  • Water Temperature
  • Satellite Maps
  • Weather Map
  • Weather Widgets
  • user-avatar
    Login

    Hourly Weather Sarafovo

    Today, 16 November, Friday

    Time Temperature Precipitation Wind Pressure Humidity
    00:00 +4°C° 0 mm 7 mps 764 mmHg 77%
    01:00 +3°C° 0 mm 6 mps 764 mmHg 78%
    02:00 +3°C° 0 mm 7 mps 764 mmHg 80%
    03:00 +2°C° 0 mm 7 mps 764 mmHg 81%
    04:00 +2°C° 0 mm 7 mps 765 mmHg 81%
    05:00 +2°C° 0 mm 7 mps 765 mmHg 82%
    06:00 +2°C° 0 mm 7 mps 765 mmHg 81%
    07:00 +2°C° 0 mm 7 mps 765 mmHg 81%
    08:00 +2°C° 0 mm 7 mps 766 mmHg 79%
    09:00 +3°C° 0 mm 7 mps 766 mmHg 76%
    10:00 +3°C° 0 mm 7 mps 766 mmHg 72%
    11:00 +4°C° 0 mm 7 mps 766 mmHg 68%
    12:00 +4°C° 0 mm 7 mps 766 mmHg 67%
    13:00 +4°C° 0 mm 7 mps 767 mmHg 65%
    14:00 +4°C° 0 mm 7 mps 767 mmHg 63%
    15:00 +3°C° 0 mm 7 mps 767 mmHg 64%
    16:00 +3°C° 0 mm 6 mps 767 mmHg 65%
    17:00 +2°C° 0 mm 6 mps 767 mmHg 66%
    18:00 +1°C° 0 mm 6 mps 768 mmHg 68%
    19:00 +1°C° 0 mm 6 mps 768 mmHg 70%
    20:00 0°C° 0 mm 5 mps 768 mmHg 73%
    21:00 0°C° 0 mm 5 mps 768 mmHg 74%
    22:00 0°C° 0 mm 5 mps 768 mmHg 76%
    23:00 0°C° 0 mm 5 mps 768 mmHg 78%

    Tomorrow, 17 November, Saturday

    Time Temperature Precipitation Wind Pressure Humidity
    00:00 0°C° 0 mm 5 mps 768 mmHg 79%
    01:00 0°C° 0 mm 4 mps 768 mmHg 80%
    02:00 0°C° 0 mm 4 mps 769 mmHg 81%
    03:00 0°C° 0 mm 4 mps 769 mmHg 81%
    04:00 0°C° 0 mm 4 mps 768 mmHg 81%
    05:00 0°C° 0 mm 4 mps 768 mmHg 82%
    06:00 0°C° 0 mm 4 mps 768 mmHg 82%
    07:00 0°C° 0 mm 4 mps 768 mmHg 82%
    08:00 0°C° 0 mm 4 mps 769 mmHg 82%
    09:00 +1°C° 0 mm 4 mps 769 mmHg 77%
    10:00 +4°C° 0 mm 4 mps 768 mmHg 72%
    11:00 +5°C° 0 mm 4 mps 768 mmHg 68%
    12:00 +5°C° 0 mm 5 mps 768 mmHg 67%
    13:00 +5°C° 0 mm 5 mps 768 mmHg 66%
    14:00 +6°C° 0 mm 5 mps 768 mmHg 65%
    15:00 +5°C° 0 mm 5 mps 768 mmHg 69%
    16:00 +3°C° 0 mm 5 mps 768 mmHg 73%
    17:00 +3°C° 0 mm 5 mps 767 mmHg 77%
    18:00 +3°C° 0 mm 5 mps 767 mmHg 79%
    19:00 +4°C° 0 mm 4 mps 767 mmHg 81%
    20:00 +3°C° 0 mm 4 mps 767 mmHg 83%
    21:00 +4°C° 0 mm 4 mps 767 mmHg 84%
    22:00 +4°C° 0 mm 4 mps 767 mmHg 84%
    23:00 +4°C° 0 mm 4 mps 767 mmHg 85%

    Day after tomorrow, 18 November, Sunday

    Time Temperature Precipitation Wind Pressure Humidity
    00:00 +4°C° 0 mm 4 mps 767 mmHg 85%
    01:00 +4°C° 0 mm 4 mps 767 mmHg 86%
    02:00 +4°C° 0 mm 4 mps 767 mmHg 86%
    03:00 +4°C° 0 mm 4 mps 767 mmHg 86%
    04:00 +3°C° 0 mm 5 mps 766 mmHg 86%
    05:00 +3°C° 0 mm 5 mps 766 mmHg 85%
    06:00 +3°C° 0.1 mm 5 mps 766 mmHg 85%
    07:00 +3°C° 0.1 mm 5 mps 766 mmHg 84%
    08:00 +3°C° 0.1 mm 6 mps 766 mmHg 83%
    09:00 +4°C° 0.1 mm 6 mps 766 mmHg 81%
    10:00 +5°C° 0.1 mm 5 mps 766 mmHg 79%
    11:00 +6°C° 0.1 mm 5 mps 766 mmHg 77%
    12:00 +6°C° 0.1 mm 5 mps 765 mmHg 76%
    13:00 +6°C° 0.1 mm 5 mps 765 mmHg 76%
    14:00 +7°C° 0.1 mm 5 mps 764 mmHg 75%
    15:00 +7°C° 0.1 mm 5 mps 764 mmHg 76%
    16:00 +6°C° 0.1 mm 5 mps 763 mmHg 78%
    17:00 +6°C° 0.1 mm 5 mps 763 mmHg 79%
    18:00 +6°C° 0.1 mm 5 mps 762 mmHg 80%
    19:00 +6°C° 0.1 mm 5 mps 762 mmHg 80%
    20:00 +5°C° 0.1 mm 6 mps 761 mmHg 81%
    21:00 +5°C° 0.4 mm 6 mps 761 mmHg 82%
    22:00 +5°C° 0.4 mm 6 mps 760 mmHg 82%
    23:00 +5°C° 0.4 mm 6 mps 760 mmHg 83%

    19 November, Monday

    Time Temperature Precipitation Wind Pressure Humidity
    00:00 +5°C° 1.1 mm 6 mps 760 mmHg 84%
    01:00 +4°C° 1.1 mm 6 mps 759 mmHg 85%
    02:00 +4°C° 1.1 mm 6 mps 759 mmHg 86%
    03:00 +4°C° 0.6 mm 6 mps 758 mmHg 87%
    04:00 +5°C° 0.6 mm 6 mps 758 mmHg 87%
    05:00 +5°C° 0.6 mm 6 mps 757 mmHg 87%
    06:00 +5°C° 0.3 mm 6 mps 757 mmHg 88%
    07:00 +5°C° 0.3 mm 6 mps 757 mmHg 89%
    08:00 +5°C° 0.3 mm 6 mps 757 mmHg 90%
    09:00 +7°C° 0.3 mm 6 mps 757 mmHg 88%
    10:00 +7°C° 0.3 mm 6 mps 757 mmHg 87%
    11:00 +8°C° 0.3 mm 6 mps 757 mmHg 86%
    12:00 +8°C° 0.2 mm 5 mps 756 mmHg 86%
    13:00 +8°C° 0.2 mm 5 mps 756 mmHg 87%
    14:00 +8°C° 0.2 mm 5 mps 756 mmHg 87%
    15:00 +8°C° 0.2 mm 4 mps 756 mmHg 89%
    16:00 +8°C° 0.2 mm 4 mps 756 mmHg 90%
    17:00 +8°C° 0.2 mm 4 mps 756 mmHg 92%
    18:00 +9°C° 0.1 mm 3 mps 756 mmHg 93%
    19:00 +9°C° 0.1 mm 3 mps 756 mmHg 93%
    20:00 +9°C° 0.1 mm 3 mps 756 mmHg 94%
    21:00 +9°C° 0.2 mm 2 mps 757 mmHg 95%
    22:00 +9°C° 0.2 mm 2 mps 757 mmHg 95%
    23:00 +9°C° 0.2 mm 2 mps 757 mmHg 95%

    20 November, Tuesday

    Time Temperature Precipitation Wind Pressure Humidity
    00:00 +9°C° 0.2 mm 2 mps 757 mmHg 95%
    01:00 +9°C° 0.2 mm 2 mps 757 mmHg 95%
    02:00 +9°C° 0.2 mm 2 mps 757 mmHg 95%
    03:00 +10°C° 0 mm 1 mps 757 mmHg 95%
    04:00 +9°C° 0 mm 1 mps 757 mmHg 95%
    05:00 +9°C° 0 mm 1 mps 757 mmHg 95%
    06:00 +9°C° 0 mm 1 mps 757 mmHg 95%
    07:00 +9°C° 0 mm 1 mps 757 mmHg 95%
    08:00 +9°C° 0 mm 1 mps 758 mmHg 95%
    09:00 +10°C° 0 mm 1 mps 758 mmHg 91%
    10:00 +12°C° 0 mm 1 mps 758 mmHg 88%
    11:00 +13°C° 0 mm 1 mps 758 mmHg 84%
    12:00 +13°C° 0.3 mm 2 mps 757 mmHg 87%
    13:00 +13°C° 0.3 mm 2 mps 757 mmHg 89%
    14:00 +12°C° 0.3 mm 3 mps 757 mmHg 91%
    15:00 +12°C° 0.3 mm 3 mps 756 mmHg 92%
    16:00 +12°C° 0.3 mm 4 mps 756 mmHg 94%
    17:00 +13°C° 0.3 mm 4 mps 756 mmHg 95%
    18:00 +13°C° 0.4 mm 4 mps 755 mmHg 95%
    19:00 +13°C° 0.4 mm 5 mps 755 mmHg 94%
    20:00 +14°C° 0.4 mm 5 mps 754 mmHg 94%
    21:00 +14°C° 0.4 mm 6 mps 754 mmHg 92%
    22:00 +15°C° 0.4 mm 6 mps 754 mmHg 91%
    23:00 +15°C° 0.4 mm 6 mps 753 mmHg 90%

    21 November, Wednesday

    Time Temperature Precipitation Wind Pressure Humidity
    00:00 +15°C° 0.1 mm 6 mps 753 mmHg 89%
    01:00 +15°C° 0.1 mm 6 mps 752 mmHg 89%
    02:00 +15°C° 0.1 mm 6 mps 752 mmHg 88%
    03:00 +15°C° 0.2 mm 6 mps 751 mmHg 87%
    04:00 +16°C° 0.2 mm 7 mps 751 mmHg 87%
    05:00 +16°C° 0.2 mm 7 mps 750 mmHg 86%
    06:00 +16°C° 0.1 mm 8 mps 750 mmHg 84%
    07:00 +16°C° 0.1 mm 8 mps 750 mmHg 82%
    08:00 +16°C° 0.1 mm 9 mps 750 mmHg 80%
    09:00 +17°C° 0 mm 9 mps 749 mmHg 76%
    10:00 +18°C° 0 mm 9 mps 749 mmHg 72%
    11:00 +19°C° 0 mm 9 mps 749 mmHg 68%
    12:00 +19°C° 0 mm 9 mps 749 mmHg 64%
    13:00 +21°C° 0 mm 9 mps 748 mmHg 59%
    14:00 +21°C° 0 mm 9 mps 748 mmHg 55%
    15:00 +20°C° 0 mm 8 mps 748 mmHg 58%
    16:00 +18°C° 0 mm 7 mps 748 mmHg 61%
    17:00 +17°C° 0 mm 6 mps 749 mmHg 65%
    18:00 +17°C° 0 mm 5 mps 749 mmHg 69%
    19:00 +16°C° 0 mm 5 mps 749 mmHg 73%
    20:00 +15°C° 0 mm 4 mps 750 mmHg 77%
    21:00 +15°C° 0 mm 4 mps 750 mmHg 77%
    22:00 +14°C° 0 mm 4 mps 751 mmHg 77%
    23:00 +14°C° 0 mm 4 mps 751 mmHg 77%
    Show more